Kuiper-00035

operational
NORAD ID: 63748 Int'l Des: 2025-088 Owner: KUIP Country: US Constellation: kuiper
LEOCIRCULAR

About Kuiper-00035

Description loading...

Live Position

Loading 3D Globe...

Upcoming Passes

Altitude History

Altitude vs Time

uPlot chart will show altitude changes over time

Two-Line Element Set

1 63748U 25088AA 25306.48121828 .00003252 00000-0 45538-3 0 9991
2 63748 51.9020 316.6259 0005451 12.0754 348.0338 14.79935114 28679
Epoch: Nov 2, 2025 • Age: 33 hours

Current Status

Altitude 629.2 km
Velocity 7.55 km/s
Sub-Earth Point 37.33°N, 0.93°E
Launch Date Apr 28, 2025
Age 0.5 years
Type internet

Technical Details

Classification Payload
Mass 490.00 kg
Dry Mass 490.00 kg
Total Mass 490.00 kg
Length 1.80 m
Diameter 0.70 m
Span 5.00 m
Shape Box + 2 pan
Manufacturer KUIP
Bus Type Kuiper
Phase Status In Orbit
Owner/State KUIP/US

Large Constellations

Loading constellations...